Location: Days
(41.3591°N, 106.7339°W)
Time: 05:49:16
(UTC+00:00)

AIST 2D - Pass Details

Date: 30 June 2022
Orbit: 433 x 443 km, 97.0° (Epoch: 14 August)

Event Time Altitude Azimuth Distance (km) Brightness Sun altitude
Rises 05:44:56 0° 350° (N) 2,422 ? -22.5°
Reaches altitude 10° 05:47:47 10° 322° (NW) 1,550 ? -22.7°
Maximum altitude 05:49:24 13° 293° (WNW) 1,370 ? -22.8°
Drops below altitude 10° 05:51:01 10° 263° (W) 1,546 ? -22.9°
Enters shadow 05:51:23 - 258° (WSW) 1,630 ? -22.9°
